EHI
0 0 0 0 1 1 1 0 0 0 0 0 0 0 0 0 0 0 0 4 9 6 4 14 18 9 1 0 0 0 0 0 0 0 0 0 0 0 0 0 0 0 0 0 0 0 0 0 0
0 0 0 0 0 0 0 0 0 0 0 0 0 0 0 0 0 0 0 4 7 4 3 12 17 8 1 0 0 0 0 0 0 0 0 0 0 0 0 0 0 0 0 0 0 0 0 0 0
0 0 0 0 0 0 0 0 0 0 0 0 0 0 0 0 0 0 0 2 3 2 2 11 15 8 0 0 0 0 0 0 0 0 0 0 0 0 0 0 0 0 0 0 0 0 0 0 0
0 0 0 0 0 0 0 0 0 0 0 0 0 0 0 0 0 0 0 0 2 3 4 10 15 9 1 0 0 0 0 0 0 0 0 0 0 0 0 0 0 0 0 0 0 0 0 0 0
0 0 0 0 0 0 0 0 0 0 0 0 0 0 0 0 0 0 0 0 4 11 12 12 17 13 4 1 0 0 0 0 0 0 0 0 0 0 0 0 0 0 0 0 0 0 0 0 0
0 0 0 0 0 0 0 0 0 0 0 0 0 0 0 0 0 0 0 1 9 24 25 16 16 15 7 2 0 0 0 0 0 0 0 0 0 0 0 0 0 0 0 0 0 0 0 0 0
0 0 0 0 0 0 0 0 0 0 0 0 0 0 0 0 0 0 0 1 12 34 35 18 10 11 8 3 1 0 0 0 0 0 0 0 0 0 0 0 1 1 0 0 0 0 0 0 0
0 0 0 0 0 0 0 0 0 0 0 0 0 0 0 0 0 0 0 1 13 38 44 22 6 6 5 2 1 0 0 0 0 0 0 0 0 0 0 1 2 2 1 1 1 0 0 0 0
0 0 0 0 0 0 0 0 0 0 0 0 0 0 0 0 0 0 0 1 10 36 49 32 14 7 2 1 1 0 0 0 0 1 1 1 0 0 3 11 19 21 15 10 7 4 2 1 0
0 0 0 0 0 0 0 0 0 0 0 0 0 0 2 2 1 0 0 1 7 27 46 46 35 22 9 5 8 4 1 2 2 5 11 9 3 0 9 32 54 53 37 22 13 8 4 2 1
0 0 0 0 0 0 0 0 0 0 0 0 0 2 6 6 3 0 0 2 9 25 45 55 59 52 31 22 26 18 10 11 11 17 30 27 11 2 16 51 78 73 47 24 13 8 5 3 2
0 0 0 0 0 0 0 0 0 0 0 0 0 3 8 8 4 1 0 4 19 41 58 68 78 80 65 53 54 46 31 31 36 45 55 52 33 15 24 60 84 75 52 31 18 13 12 9 7
0 0 0 0 0 0 0 0 0 0 0 0 0 2 4 6 7 8 10 14 33 62 80 85 92 95 90 83 81 73 62 57 64 75 82 77 64 47 48 72 89 79 64 53 42 32 29 23 15
0 0 0 0 0 0 0 0 0 0 0 0 0 0 2 4 11 22 35 40 49 74 93 97 99 100 99 97 94 89 81 74 76 89 97 94 87 81 81 89 95 85 70 66 65 56 48 37 24
0 0 0 0 0 0 0 0 0 0 0 0 0 1 3 6 12 31 58 70 68 80 95 99 100 100 100 99 97 93 82 74 79 92 99 99 97 97 98 98 98 89 76 74 76 70 62 50 39
0 0 0 0 0 0 0 0 0 0 0 0 1 2 7 11 15 30 61 82 85 88 96 100 99 100 100 100 99 94 82 77 86 96 100 100 100 100 100 99 98 93 87 84 82 77 72 64 58
0 0 0 0 0 0 0 0 0 0 0 1 2 5 12 20 26 37 58 80 91 95 98 100 100 100 100 100 100 97 91 89 93 98 100 100 100 100 100 100 98 94 93 91 85 81 78 73 68
0 0 0 0 0 0 0 0 0 0 0 1 4 10 20 32 43 53 66 80 92 98 100 100 100 100 100 100 100 99 98 97 97 98 99 100 99 99 99 99 97 95 93 89 84 80 78 72 66
0 0 0 0 0 0 0 0 0 0 0 1 6 17 30 45 58 69 76 84 91 96 99 100 100 100 100 100 100 100 99 98 98 98 98 98 99 99 99 98 97 96 92 86 82 80 75 66 61
0 0 0 0 0 0 0 0 0 0 0 2 10 22 35 50 64 71 75 78 82 86 92 96 97 98 99 99 100 99 99 99 98 97 97 98 99 99 98 97 98 96 91 84 81 78 69 57 51
0 0 0 0 0 0 0 0 0 0 0 4 13 24 33 43 51 53 54 57 61 67 75 82 88 93 97 98 99 98 99 98 97 96 97 98 98 99 98 98 96 94 91 85 80 74 62 48 41
0 0 0 0 0 0 0 0 0 1 4 11 19 24 26 27 29 29 28 30 35 41 48 60 72 82 90 94 96 97 99 99 98 97 96 97 97 97 97 96 94 92 90 86 78 69 59 48 40
0 0 0 0 0 0 0 0 0 2 9 18 21 20 17 15 13 12 12 12 14 16 23 36 53 67 78 84 89 93 96 99 98 96 94 92 93 94 94 93 92 90 88 83 74 65 58 49 42
0 0 0 0 0 0 0 0 1 5 11 16 15 13 11 9 7 5 5 4 4 5 8 19 36 53 65 73 78 85 90 93 92 91 89 88 89 90 90 90 90 88 85 78 68 61 54 44 37
0 0 0 0 0 0 0 0 2 7 10 9 7 6 7 7 5 3 2 1 2 4 5 11 26 42 52 57 63 70 75 74 75 78 80 81 81 81 82 82 82 80 76 70 63 57 48 36 29
0 0 0 0 0 0 0 0 3 7 7 4 2 2 3 4 3 2 1 0 1 4 6 10 19 30 36 38 41 46 47 46 49 57 61 63 65 67 68 70 70 67 63 60 57 52 42 31 24
0 0 0 0 0 0 0 0 2 3 3 1 0 0 1 2 2 1 1 1 2 4 6 9 16 24 25 23 22 22 22 23 28 34 37 39 45 50 54 56 53 51 49 47 45 40 30 23 19
0 0 0 0 0 0 0 0 0 0 0 0 0 0 1 1 1 1 2 2 2 4 6 11 17 22 21 16 11 8 8 10 13 16 19 22 27 32 37 39 36 33 31 28 25 22 16 12 10
0 0 0 0 0 0 0 0 0 0 0 0 0 0 0 0 0 1 2 2 1 2 5 11 15 17 17 14 8 4 2 3 5 6 8 11 14 17 21 23 21 17 13 10 9 8 6 4 4
0 0 0 0 0 0 0 0 0 0 0 0 0 0 0 0 0 0 1 1 0 1 3 8 10 11 13 11 6 2 0 0 1 2 3 5 7 9 12 14 12 8 4 2 2 3 2 2 2
Wind_Speed
10 12 11 7 6 5 7 15 16 15 14 13 9 7 11 17 12 9 12 16 22 21 18 17 15 14 13 13 13 13 13 13 12 11 10 9 8 7 7 6 6 6 7 7 7 7 7 7 6
12 14 9 6 4 3 10 13 13 12 9 7 5 6 11 15 12 12 13 17 22 20 17 16 16 14 14 13 12 13 13 12 12 11 10 9 8 7 6 5 5 5 5 6 6 6 5 5 5
13 15 8 7 2 2 10 11 9 8 7 6 7 11 11 9 8 11 15 18 21 18 16 17 17 15 14 13 12 12 12 12 12 11 10 9 8 7 6 6 5 5 5 5 5 5 4 4 3
10 8 8 6 3 6 10 7 5 7 9 8 7 11 11 6 4 13 17 18 20 19 18 18 17 15 14 13 12 11 11 11 11 10 9 9 8 7 7 6 6 5 5 5 5 4 4 4 4
10 8 10 3 2 6 7 5 5 9 9 9 11 15 12 7 10 16 15 17 18 19 18 18 17 15 14 13 12 11 11 11 10 10 9 9 8 8 7 7 7 6 6 6 5 5 5 5 6
7 9 9 4 3 4 6 5 6 7 7 7 8 14 9 8 11 13 14 13 16 20 19 17 18 16 14 13 12 12 11 11 10 10 9 9 9 8 8 8 7 7 6 6 6 6 6 6 7
10 12 13 7 4 2 4 3 5 7 10 10 6 11 10 11 11 12 12 10 14 20 20 16 15 14 14 14 13 12 12 11 11 10 10 9 9 9 8 8 8 8 8 8 8 8 8 8 8
10 11 16 10 3 3 4 3 7 7 9 5 6 8 12 13 13 13 10 9 10 17 19 16 15 14 13 12 14 13 13 12 12 11 11 11 10 10 10 10 10 10 10 10 10 10 10 10 10
12 12 13 9 4 4 7 5 5 2 5 4 5 10 14 17 15 14 11 8 7 11 16 16 17 14 13 13 14 14 13 13 12 11 12 11 9 11 11 14 14 14 13 12 12 12 12 11 12
10 11 12 5 6 6 5 4 4 3 4 5 8 12 15 15 14 14 13 12 11 10 13 12 15 15 14 12 12 10 10 11 10 9 11 9 8 8 10 14 16 17 15 14 14 14 12 11 8
12 15 14 7 3 4 6 6 5 5 2 4 4 11 14 14 13 14 14 13 13 11 9 10 10 13 12 8 10 8 7 8 11 11 10 8 7 7 7 6 10 11 13 10 11 12 9 9 7
14 14 13 9 7 6 8 9 8 5 3 6 5 4 11 13 13 13 13 13 13 13 12 11 8 8 7 6 7 8 7 6 8 10 10 8 6 5 4 3 7 8 7 7 7 6 9 9 8
12 13 14 11 9 10 11 11 11 9 3 1 1 1 6 11 12 12 12 12 12 13 12 10 8 7 6 4 3 6 6 6 7 7 9 8 6 6 6 3 3 4 4 6 7 5 5 5 6
11 12 12 11 12 12 13 13 14 11 6 4 4 5 6 7 10 12 12 11 11 12 13 11 9 8 6 5 4 4 4 4 5 5 9 10 7 6 5 4 3 3 3 3 4 5 4 4 4
10 13 14 16 16 15 12 13 14 13 4 4 6 5 4 3 4 7 9 9 10 10 10 11 10 9 8 8 8 7 6 6 5 5 7 9 9 6 5 4 4 4 5 5 4 4 3 4 5
12 15 17 18 16 9 7 12 12 5 4 4 5 5 1 2 3 4 5 7 7 7 8 9 11 12 11 8 7 7 8 7 5 4 5 8 9 7 5 5 5 5 5 4 4 4 4 4 3
16 16 17 15 9 5 8 11 8 1 2 3 4 4 3 0 1 1 1 4 6 4 4 6 6 7 10 10 8 8 7 6 4 4 4 6 8 8 6 5 5 5 4 4 5 4 4 3 3
10 12 11 9 4 6 7 11 12 9 4 3 5 4 4 5 5 4 4 4 1 1 2 3 4 4 4 6 6 6 8 6 5 5 4 5 6 8 7 6 6 5 4 3 3 3 2 2 2
12 13 13 11 8 5 8 13 16 12 6 4 2 2 4 5 7 9 8 7 6 5 2 1 1 2 3 4 5 6 7 6 5 5 6 7 7 7 6 6 5 5 4 5 4 4 4 3 2
10 11 12 12 10 7 10 14 16 14 11 6 2 2 1 5 7 7 7 8 9 8 7 5 4 4 4 4 5 5 5 5 6 5 6 7 7 6 7 7 6 5 5 6 6 6 4 4 4
10 10 10 11 12 13 15 17 17 17 12 7 6 4 4 4 5 5 5 6 7 7 6 6 5 5 5 5 5 5 5 5 6 7 6 6 6 7 7 8 8 7 7 7 8 7 7 6 4
9 9 10 11 13 13 16 16 14 13 8 9 6 5 5 4 4 4 3 4 5 5 5 4 4 5 5 6 5 7 7 8 8 6 5 6 6 7 8 9 8 8 7 8 8 7 6 6 5
10 13 12 14 15 17 17 16 14 10 2 9 9 7 3 3 2 2 2 2 3 5 5 4 4 5 5 6 7 7 7 7 7 7 8 7 7 8 9 9 8 8 8 8 8 7 7 6 6
8 11 15 16 14 16 12 12 8 6 9 10 8 5 3 1 1 1 2 1 1 3 4 4 4 5 5 6 7 7 8 9 9 9 8 7 6 7 9 9 8 9 8 8 7 7 8 7 6
7 9 9 9 7 4 4 7 4 6 9 8 5 2 1 1 3 3 3 3 3 3 3 3 4 5 6 7 7 7 8 9 10 9 8 8 7 6 7 8 7 6 6 7 7 7 7 7 7
6 7 8 9 11 13 12 9 2 9 8 5 3 1 2 3 4 4 5 3 3 3 4 4 4 5 5 6 6 6 7 7 7 8 8 8 7 6 5 5 6 6 5 5 4 4 4 4 4
7 6 8 9 13 14 11 6 7 7 4 3 2 3 4 5 5 6 6 4 3 3 3 4 4 4 5 6 6 6 6 7 8 8 8 7 7 6 4 3 4 4 4 4 4 3 3 3 3
8 7 6 6 8 11 12 11 5 2 1 1 3 5 6 6 6 6 5 4 3 3 2 3 2 3 4 5 6 7 7 7 7 7 8 7 6 4 2 1 1 2 2 3 4 4 4 4 3
7 7 8 8 8 11 13 11 8 5 3 5 8 8 8 8 8 6 5 5 4 4 3 2 2 2 2 3 5 5 6 6 7 6 7 7 5 3 1 1 2 2 3 3 4 4 4 4 4
6 7 9 8 9 11 13 12 7 4 3 7 9 10 9 8 7 7 6 5 5 5 5 4 3 2 2 2 3 4 4 6 6 6 7 7 6 3 2 3 4 5 5 4 5 5 6 6 6
Wind_Direction
264 251 241 256 259 255 59 58 51 50 54 57 44 17 37 51 51 80 124 133 119 123 132 136 136 140 143 145 147 149 149 150 151 151 150 148 145 139 133 127 119 112 107 104 102 102 103 104 104
283 274 254 247 273 331 65 66 64 60 61 77 71 39 59 63 72 108 124 123 120 126 138 139 139 142 144 146 148 152 154 154 155 156 158 158 158 156 153 148 142 134 126 121 118 116 116 116 119
268 264 268 246 205 60 68 71 76 94 90 72 79 64 50 57 73 112 123 130 124 132 138 135 145 145 146 148 151 154 156 158 159 161 163 165 167 171 171 169 167 164 155 150 146 141 139 143 152
273 260 234 263 7 57 71 78 81 85 74 58 63 80 74 46 68 115 132 138 132 137 133 140 149 148 149 151 154 157 159 160 161 164 167 170 174 181 184 184 186 186 181 177 174 174 177 185 197
264 259 262 295 348 64 71 69 64 68 65 58 70 85 85 91 102 119 146 143 143 138 134 145 151 152 154 157 160 162 164 166 167 170 174 178 184 191 194 195 196 197 198 198 197 202 208 213 220
274 271 288 329 327 63 71 71 62 64 65 67 75 95 91 112 119 140 151 152 149 134 136 144 153 156 160 164 167 169 171 173 175 178 182 187 193 200 203 202 201 202 205 210 216 222 228 230 232
275 290 292 279 242 90 54 58 68 66 54 43 22 97 116 127 133 146 142 170 149 135 136 149 156 161 166 172 175 177 179 181 184 188 192 197 201 205 206 205 208 208 212 219 226 233 237 240 241
279 290 292 293 255 105 77 43 60 54 78 61 6 68 129 136 148 142 149 188 148 138 141 155 160 164 171 177 183 185 187 189 192 196 200 204 208 213 214 212 211 216 219 224 231 237 242 245 246
267 269 280 318 327 74 49 18 69 47 107 99 73 64 116 140 153 146 159 188 156 144 144 163 162 169 177 181 181 186 192 197 198 202 207 209 215 212 209 219 211 211 217 223 231 238 243 246 246
243 263 278 356 3 15 24 335 317 235 181 163 132 111 126 146 157 160 170 184 175 170 161 167 166 170 185 190 169 185 193 193 203 204 198 206 223 230 218 203 202 206 214 222 230 237 244 244 247
250 263 284 312 343 334 311 287 272 279 323 79 98 131 142 157 168 176 179 187 182 179 182 172 175 168 187 190 164 187 197 187 198 215 199 205 222 228 227 185 187 203 213 222 226 227 232 234 232
253 271 286 299 316 314 294 293 297 297 6 63 48 109 153 170 181 189 186 191 183 182 188 183 187 167 194 200 180 185 197 188 192 198 202 201 214 239 230 201 181 191 203 209 225 207 218 229 233
252 266 280 285 284 277 278 279 278 274 278 49 33 201 193 186 187 192 189 193 191 181 185 188 182 174 185 230 231 200 200 202 195 188 194 203 204 216 233 223 202 206 208 197 208 221 226 229 237
277 275 272 276 275 273 271 271 269 257 225 218 223 226 228 212 194 190 190 189 198 183 184 185 178 176 177 203 234 261 234 209 219 197 189 197 210 210 217 218 207 223 243 243 203 219 222 229 242
279 283 274 261 251 250 261 264 263 260 215 248 263 244 215 228 223 204 189 184 200 188 181 177 178 183 181 204 218 232 243 242 221 214 197 190 202 212 207 221 211 212 221 228 224 238 234 234 243
253 252 256 253 237 234 249 270 277 254 210 251 286 297 271 166 249 239 189 176 202 203 179 180 191 189 186 200 214 228 236 239 233 216 208 197 200 206 209 214 220 215 215 217 211 221 235 235 244
240 239 249 251 195 212 254 275 288 167 231 269 286 295 309 327 224 288 255 191 195 205 173 178 202 194 189 197 209 232 249 248 249 234 212 204 200 204 208 219 225 225 220 217 231 215 215 233 240
295 282 263 256 200 204 252 279 284 265 216 257 296 335 3 7 14 19 11 1 20 135 152 180 194 221 215 202 210 226 242 247 239 242 234 222 207 204 207 215 221 228 235 230 232 255 244 242 249
320 313 315 312 304 301 292 287 282 280 264 242 267 17 27 32 29 26 19 11 14 20 16 341 281 260 257 250 236 233 236 243 250 240 233 228 223 217 209 230 222 218 232 232 227 230 239 240 246
283 282 283 278 273 273 273 273 275 270 258 240 197 111 57 64 51 37 25 14 12 15 8 359 356 320 288 268 264 257 256 253 247 250 248 240 226 219 223 222 224 215 224 232 226 221 219 228 218
271 276 291 311 321 303 287 274 265 256 233 195 171 148 115 91 77 54 33 21 6 360 356 355 349 334 320 301 284 279 276 263 258 252 247 242 234 222 222 227 224 217 215 228 227 219 215 225 219
295 325 327 314 302 293 294 294 291 282 206 170 134 107 98 88 90 79 44 20 355 348 345 345 352 342 327 314 297 283 271 266 263 263 260 253 243 236 229 228 227 227 224 224 227 221 211 214 223
311 324 312 293 283 278 274 274 279 292 163 133 120 114 116 118 86 63 24 16 345 336 336 342 353 340 328 313 299 293 286 280 279 276 269 260 247 235 232 228 225 226 228 223 221 218 212 209 215
292 294 286 270 259 263 280 295 297 45 76 106 119 136 145 88 342 9 355 342 329 325 332 342 343 334 328 320 313 305 299 297 292 284 273 264 254 243 236 231 224 224 224 222 220 218 215 211 211
299 309 306 310 293 281 347 293 304 96 97 104 116 133 154 301 304 311 315 308 314 318 329 329 333 331 329 324 322 318 312 303 292 288 284 278 270 256 240 236 231 228 226 224 219 219 219 213 209
303 298 305 321 317 320 309 289 52 97 91 90 85 27 298 297 302 311 302 293 304 318 325 325 332 329 329 328 328 321 318 312 309 309 302 292 281 271 256 238 230 226 223 219 207 207 207 199 204
291 296 321 309 295 293 296 321 97 92 85 66 357 301 293 297 304 303 304 308 311 312 315 320 317 327 332 331 329 317 331 329 321 316 308 298 288 278 264 242 230 211 200 191 182 179 171 159 177
251 276 286 288 300 304 308 320 28 80 330 317 307 303 299 297 295 299 304 304 313 310 301 294 301 318 326 330 330 333 344 337 331 328 328 319 305 298 290 238 180 177 180 176 167 156 155 150 146
261 269 294 296 292 299 302 305 326 342 8 334 315 304 294 291 300 307 310 316 317 307 307 291 292 308 331 335 335 338 343 342 345 347 348 342 326 323 314 116 105 97 99 124 133 129 131 131 124
286 296 291 284 290 294 291 294 325 36 337 305 303 306 307 304 304 304 306 314 317 313 310 305 305 312 326 332 328 346 360 357 358 0 5 6 358 356 57 90 91 91 83 88 107 114 115 114 108